Regional Weather Roundup
Issued by NWS Binghamton, NY

Home | Current Version | Previous Version | Text Only | Print | Product List | Glossary On
Versions: 1 2 3 4 5 6 7 8 9 10 11 12 13 14 15 16 17 18 19 20 21 22 23 24 25 26 27 28 29 30 31 32 33 34 35 36 37 38 39 40 41 42 43 44 45 46 47 48 49 50
000
ASUS41 KBGM 290810
RWRBGM
RWRBGM
BINGHAMTON REGIONAL WEATHER ROUNDUP
NATIONAL WEATHER SERVICE BINGHAMTON NY
300 AM EST THU JAN 29 2015

Note: "fair" indicates few or no clouds below 12,000 feet with no
significant weather and/or obstructions to visibility.

* = Station(s) that does not report precipitation, such as rain,
snow, etc, also no thunder or fog.

!NYZ009-015>018-022>025-036-037-044>046-055>057-062-290900
...CENTRAL NEW YORK...

CITY           SKY/WX    TMP DP  RH WIND       PRES   REMARKS
BINGHAMTON     PTCLDY     8   4  83 SE5       30.22S WCI   0
CORTLAND       FAIR      -4  -6  92 CALM      30.27F
DANSVILLE      PTCLDY     5  -3  69 SE8       30.27F WCI  -8
ELMIRA         FAIR      -7 -11  83 CALM      30.29F
ITHACA         NOT AVBL
HAMILTON       SUNNY      0   3 100 CALM      30.28
MONTICELLO     PTCLDY     9   0  66 W6        30.22S WCI  -1
NORWICH        CLEAR     -6  -9  84 CALM      30.30F
ONEONTA        CLEAR      3   0  85 CALM      30.21F
PENN YAN       PTCLDY     6   2  83 SW7       30.25F WCI  -6
ROME           PTCLDY     1  -7  68 E6        30.34F WCI -10
SIDNEY         CLEAR      0  -2  92 CALM      30.30S
SYRACUSE       PTCLDY     3   0  87 E6        30.30F WCI  -8
$$

!PAZ038>040-043-044-047-048-072-290900
...NORTHEAST PENNSYLVANIA...

CITY           SKY/WX    TMP DP  RH WIND       PRES   REMARKS
HAZLETON       PTCLDY     9   5  85 CALM      30.25S
SCRANTON       PTCLDY     9   2  73 E5        30.28S WCI   1
TOWANDA*         N/A      1  -4  78 SW3       30.33S
$$
&&
KEY
WCI = WIND CHILL INDEX
VSB = VISIBILITY
HX  = HEAT INDEX
$$


USA.gov is the U.S. government's official web portal to all federal, state and local government web resources and services.